Home > Weather > Ipswich > Past weeks

Flag for United Kingdom Past Weather in Ipswich, England, United Kingdom — Yesterday and Last 2 Weeks

Now
59 °F

Partly sunny.


Feels Like: 57 °F
Forecast: 55 / 65 °F
Wind: 10 mph from West

Location: Wattisham

Current Time: Jun 26, 2016 at 9:56:55 PM

Latest Report: Jun 26, 2016 at 8:50 PM


Visibility: N/A

Pressure: 30.01 "Hg

Humidity: 82%

Dew Point: 54 °F

Location of IpswichLocation

Past Weather in Ipswich — Graph

°F

Ipswich Temperature Yesterday

Maximum temperature yesterday: 66 °F (at 11:50 AM)
Minimum temperature yesterday: 48 °F (at 4:50 AM)
Average temperature yesterday: 56 °F

High & Low Weather Summary for the Past Weeks

 TemperatureHumidityPressure
High72 °F (Jun 22, 5:50 PM)100% (Jun 11, 9:50 PM)30.21 "Hg (Jun 11, 9:50 PM)
Low48 °F (Jun 25, 4:50 AM)49% (Jun 19, 4:50 PM)29.36 "Hg (Jun 14, 2:50 PM)
Average60 °F85%29.84 "Hg
* Reported Jun 11 7:50 PM — Jun 26 7:50 PM, Ipswich, Weather by CustomWeather, © 2016

Note: Actual official high and low records may vary slightly from our data, if they occured in-between our weather recording intervals... More about our weather records

Advertising

Ipswich Weather History for the Previous 24 Hours

Scroll right to see more
 ConditionsComfort  
Time TempWeatherWind HumidityBarometerVisibility
7:50 PM
Sun, Jun 26
61 °FPartly sunny.13 mph72%30.01 "HgN/A
6:50 PM64 °FPassing clouds.15 mph64%29.98 "HgN/A
5:50 PM66 °FPassing clouds.14 mph56%29.98 "HgN/A
4:50 PM68 °FPartly sunny.14 mph56%30.01 "HgN/A
3:50 PM64 °FPartly sunny.15 mph64%30.01 "HgN/A
2:50 PM64 °FPassing clouds.18 mph68%30.01 "HgN/A
1:50 PM63 °FPartly sunny.13 mph73%30.01 "HgN/A
12:50 PM64 °FPartly sunny.15 mph64%30.01 "HgN/A
11:50 AM63 °FPartly sunny.15 mph77%30.01 "HgN/A
10:50 AM61 °FPassing clouds.13 mph77%30.01 "HgN/A
9:50 AM55 °FScattered clouds.6 mph94%30.01 "HgN/A
8:50 AM54 °FHeavy rain. Partly sunny.7 mph88%30.01 "Hg2 mi
7:50 AM55 °FSprinkles. Partly sunny.7 mph100%30.01 "Hg3 mi
6:50 AM54 °FFog.6 mph100%30.01 "Hg3 mi
5:50 AM54 °FFog.7 mph94%29.98 "Hg2 mi
4:50 AM52 °FFog.7 mph94%29.98 "Hg3 mi
3:50 AM52 °FFog.6 mph94%29.98 "Hg4 mi
2:50 AM52 °FFog.5 mph94%30.01 "Hg6 mi
1:50 AM50 °FFog.5 mph100%30.01 "Hg4 mi
12:50 AM52 °FPartly cloudy.5 mph94%30.01 "HgN/A
11:50 PM
Sat, Jun 25
52 °FPassing clouds.8 mph94%30.01 "HgN/A
10:50 PM52 °FPassing clouds.9 mph94%29.98 "HgN/A
9:50 PM52 °FScattered clouds.8 mph94%29.98 "HgN/A
Weather by CustomWeather, © 2016

See weather overviewHow to use our weather pages